AEROCUBE 10A (JIMSAT) (44485 NORAD) Tracking and Keplerian Element Data

This shows tracking and keplerian element data for the satellite.

Feedback or suggestion? Click here.




ElementValue
Catalog44485
NameAEROCUBE 10A (JIMSAT)
Epoch Orbit3639
Epoch Day92.02172371
Epoch Year2020
RAAN45.9381
Inclination51.642
Eccentricity0.00104
Argument of Perigee34.5367
Mean Anonmoly325.6287
Mean Motion15.299428
Decay Rate2.513E-05
L11 44485U 19022D 20092.02172371 .00002513 00000-0 97675-4 0 9994
L22 44485 51.6420 45.9381 0010400 34.5367 325.6287 15.29942800 36392

Live tracking and technical data element details for AEROCUBE 10A (JIMSAT) (NORAD 44485). AEROCUBE 10A (JIMSAT) can be tracked NOW for your location showing map with azimuth and elevation plus other details from your city location.

Track the satellite on the map from your city or location and see movement details for azimuth, elevation, latitude, longitude, range, height, and movement on the map or in text.







IsCatalogInMostPopularTable: catalog: 44485, numindb: 51
Update: records affected: 1



GetName: 44485 AEROCUBE 10A (JIMSAT)

Hit Count: updated at: Thu, 02 Apr 2020 12:43:35 GMT